Tucson, AZ

5:48 PM MST on October 16, 2019 (GMT -0700)
Tucson International

Weather History for KTUS - August, 2019

Change the Weather History Date:

Saturday, August 17, 2019

  Actual Average Record
Temperature  
Mean Temperature 90 °F 85 °F  
Max Temperature 102 °F 97 °F 108 °F (2013)
Min Temperature 78 °F 73 °F 60 °F (1938)
Degree Days  
Heating Degree Days 0 0  
Month to date heating degree days 0 0  
Since 1 June heating degree days 0 0  
Since 1 July heating degree days 0 0  
Cooling Degree Days 25 20  
Month to date cooling degree days 415 346  
Year to date cooling degree days 2192 2125  
Since 1 June cooling degree days 1820 1623  
Growing Degree Days 40 (Base 50)    
Moisture  
Dew Point 53 °F    
Average Humidity 29    
Maximum Humidity 47    
Minimum Humidity 10    
Precipitation  
Precipitation 0.00 in 0.08 in 1.27 in (1955)
Month to date precipitation 1.15 1.39  
Year to date precipitation 7.25 6.91  
Sea Level Pressure  
Sea Level Pressure 29.76 in    
Wind  
Wind Speed 7 mph (SSW)    
Max Wind Speed 17 mph    
Max Gust Speed 23 mph    
Visibility 10 miles    
Events      
T = Trace of Precipitation, MM = Missing Value Source: NWS Daily Summary

Daily Weather History Graph

Daily Weather History Graph

Search for Another Location

Airport or City:

Astronomy

Aug. 17, 2019 Rise Set
Actual Time 5:49 AM MST 7:05 PM MST
Civil Twilight 5:23 AM MST 7:31 PM MST
Nautical Twilight 4:53 AM MST 8:01 PM MST
Astronomical Twilight 4:21 AM MST 8:33 PM MST
Moon 8:41 PM MST 7:37 AM MST
Length of Visible Light 14h 07m
Length of Day
13h 16m
Waning Gibbous, 95% of the Moon is Illuminated
Aug 17
Waning Gibbous
Aug 23
Last Quarter
Aug 30
New
Sep 5
First Quarter
Sep 13
Full

Hourly Weather History & Observations

Time (MST) Temp. Heat Index Dew Point Humidity Pressure Visibility Wind Dir Wind Speed Gust Speed Precip Events Conditions
12:53 AM 86.0 °F 84.0 °F 53.1 °F 32% 29.80 in 10.0 mi South 6.9 mph - N/A   Clear
1:53 AM 84.0 °F 82.9 °F 55.0 °F 37% 29.78 in 10.0 mi SSW 9.2 mph - N/A   Clear
2:53 AM 80.1 °F 80.2 °F 55.9 °F 43% 29.78 in 10.0 mi SW 5.8 mph - N/A   Clear
3:53 AM 79.0 °F - 55.9 °F 45% 29.78 in 10.0 mi SE 5.8 mph - N/A   Clear
4:53 AM 79.0 °F - 55.9 °F 45% 29.78 in 10.0 mi ESE 8.1 mph - N/A   Clear
5:53 AM 78.1 °F - 55.9 °F 46% 29.80 in 10.0 mi ESE 6.9 mph - N/A   Clear
6:53 AM 79.0 °F - 57.0 °F 47% 29.82 in 10.0 mi SE 6.9 mph - N/A   Clear
7:53 AM 82.9 °F 82.4 °F 57.0 °F 41% 29.84 in 10.0 mi SSE 8.1 mph - N/A   Clear
8:53 AM 89.1 °F 88.2 °F 59.0 °F 36% 29.83 in 10.0 mi South 12.7 mph - N/A   Clear
9:53 AM 91.0 °F 90.2 °F 59.0 °F 34% 29.83 in 10.0 mi SSW 9.2 mph - N/A   Clear
10:53 AM 93.0 °F 91.4 °F 55.9 °F 29% 29.82 in 10.0 mi WSW 8.1 mph - N/A   Clear
11:53 AM 97.0 °F 95.3 °F 55.9 °F 25% 29.79 in 10.0 mi East 3.5 mph - N/A   Clear
12:53 PM 98.1 °F - 51.1 °F 20% 29.77 in 10.0 mi WSW 8.1 mph - N/A   Clear
1:53 PM 100.0 °F - 48.0 °F 17% 29.74 in 10.0 mi WNW 3.5 mph - N/A   Clear
2:53 PM 100.0 °F - 44.1 °F 15% 29.72 in 10.0 mi SW 5.8 mph - N/A   Clear
3:53 PM 100.9 °F - 48.9 °F 17% 29.70 in 10.0 mi WNW 10.4 mph - N/A   Clear
4:53 PM 99.0 °F - 48.0 °F 18% 29.69 in 10.0 mi WSW 9.2 mph - N/A   Clear
5:53 PM 98.1 °F - 51.1 °F 20% 29.68 in 10.0 mi WSW 6.9 mph - N/A   Clear
6:53 PM 96.1 °F - 51.1 °F 22% 29.69 in 10.0 mi WSW 12.7 mph - N/A   Clear
7:53 PM 93.0 °F - 48.9 °F 22% 29.71 in 10.0 mi WSW 9.2 mph - N/A   Clear
8:53 PM 91.0 °F - 48.0 °F 23% 29.73 in 10.0 mi WNW 4.6 mph - N/A   Clear
9:53 PM 88.0 °F - 50.0 °F 27% 29.75 in 10.0 mi SSE 6.9 mph - N/A   Clear
10:53 PM 86.0 °F - 52.0 °F 31% 29.75 in 10.0 mi SSE 4.6 mph - N/A   Clear
11:53 PM 86.0 °F 84.0 °F 53.1 °F 32% 29.76 in 10.0 mi Calm Calm - N/A   Clear